OPS 4988 DEB, 12099

Orbit data source: Space-Track

OPS 4988 DEB, 12099 is space debris in LEO originally from a launch on Tue, 09 Mar 1965 UTC launched from the Air Force Western Test Range (AFWTR). Debris objects in space refer to the collection of defunct objects orbiting the Earth. Examples of debris include non-operational satellites, rocket bodies, and fragments generated from explosions, collisions, or faulty payload assembly.

Loading next visibility...
Identifier
12099, 1965-016K
Orbit
LEO
Country
Flag of USUS
Related business
Manufacturer
Unknown
Mission
Spacecraft
Bus & Motor
Unknown
Mass
Unknown
Launch date (UTC)
1965-03-09 (61 years ago)
Launch vehicle
Unknown
Launch site
Air Force Western Test Range (AFWTR)
Object type
Payload
Rocket body
Debris
Shape & HBR
Unknown shape, 0.1 m
Radar Cross Section
Small (<0.1 m²)

Expand to show TLE details & history
Last TLE update: 8 hours ago

TLE from 8 hours ago
0 OPS 4988 DEB
1 12099U 65016K   25290.79657699  .00000638  00000-0  43122-3 0  9997
2 12099  70.0773  40.0283 0020620 235.8210 291.6082 14.04697190 92982
Epoch: 2025-10-17T19:07Z
TLE epoch observation values (Epoch: 2025-10-17T19:07:04.251Z)
Latitude
11.98165°
Longitude
-97.6644°
Altitude
873.66 km
Speed
7.42 km/s
True Right ascension
14h 22m 33s
True Declination
11° 54' 47"
Sunlit
Object was in daylight at epoch
Visualization orbit readout
Latitude
Unknown
Longitude
Unknown
Altitude
Unknown
Speed
Unknown
Apparent Right ascension
Unknown
Apparent Declination
Unknown
Sunlit
N/A
Visualization observer readout
Local Sidereal Time
21:42:14
Azimuth
Unknown
Elevation
Unknown
Doppler factor
Unknown
Orbital elements
Apogee altitude
890.559 km
Perigee altitude
860.645 km
Semi-major axis
7,253.739 km
Eccentricity
0.00206
Inclination
70.0773°
RAAN
40.0283°
Arg. of periapsis
235.821°
True anomaly
291.38831°
Mean anomaly
291.6082°
Eccentric anomaly
291.49828°
Mean motion
3.51318 °/min
Orbital period
102.47 mins
BSTAR
0.00043122
Loading maneuver chart data...
Computing Atmospheric mass density...
Loading historical data...
Loading historical data...
Loading historical data...
Loading historical data...
Loading historical data...
Loading historical data...
Loading historical data...

Documentation

Showing up to 5 results
|